Location: *
(42.5628°N, 2.3633°E)
Time: 03:25:41
(UTC+00:00)

Cosmos 2084 Rocket - Pass Details

Date: 30 March 2020
Orbit: 561 x 620 km, 62.8° (Epoch: 31 May)

Event Time Altitude Azimuth Distance (km) Brightness Sun altitude
Rises 20:37:10 0° 321° (NW) 2,884 8.2 -25.4°
Reaches altitude 10° 20:39:26 10° 319° (NW) 1,981 7.1 -25.7°
Enters shadow 20:43:26 64° 281° (W) 685 3.8 -26.3°
